STARLINK-31174, 58808

Orbit data source: Space-Track

STARLINK-31174, 58808 is a payload satellite owned by SpaceX/Seattle (US) in LEO that was launched on Mon, 15 Jan 2024 UTC via an FALCON 9 launch vehicle from the Air Force Eastern Test Range (AFETR). Payload-class satellites include a variety of spacecraft equipped with specific instruments for various scientific and technological missions. These include communications satellites like Starlink; space stations such as the ISS; scientific satellites like the Hubble; Earth observation satellites from companies like Planet Labs, Umbra, and HawkEye 360; GPS; miniature CubeSats for education and research; and military/defense satellites.

Loading next visibility...
Identifier
58808, 2024-012X
Orbit
LEO
Country
Flag of USUS
Related business
Manufacturer
SpaceX/Seattle
Mission
Operational Commercial Communications
Bus & Motor
STARLINK V2M, Unknown motor
Mass
730 kg wet, ~700 kg dry
Launch date (UTC)
2024-01-15 (2 years ago)
Launch vehicle
FALCON 9
Launch site
Air Force Eastern Test Range (AFETR)
Object type
Payload
Rocket body
Debris
Shape & HBR
Box + 2 Pan, 17.7 m
Radar Cross Section
33.884 m², Large (>1 m²)

Expand to show TLE details & history
Last TLE update: 2 days ago

TLE from 2 days ago
0 STARLINK-31174
1 58808U 24012X   26171.43154176  .00000170  00000-0  15702-4 0  9993
2 58808  42.9989 304.6065 0001574 190.2619 169.8201 15.27569589136959
Epoch: 2026-06-20T10:21Z
TLE epoch observation values (Epoch: 2026-06-20T10:21:25.208Z)
Latitude
0.00002°
Longitude
-119.39477°
Altitude
483.918 km
Speed
7.625 km/s
True Right ascension
20h 18m 25s
True Declination
0° 00' 00"
Sunlit
Object was in full shadow at epoch
Visualization orbit readout
Latitude
Unknown
Longitude
Unknown
Altitude
Unknown
Speed
Unknown
Apparent Right ascension
Unknown
Apparent Declination
Unknown
Sunlit
N/A
Visualization observer readout
Local Sidereal Time
21:28:36
Azimuth
Unknown
Elevation
Unknown
Doppler factor
Unknown
Orbital elements
Apogee altitude
486.106 km
Perigee altitude
483.945 km
Semi-major axis
6,863.163 km
Eccentricity
0.00016
Inclination
42.9989°
RAAN
304.6065°
Arg. of periapsis
190.2619°
True anomaly
169.82329°
Mean anomaly
169.8201°
Eccentric anomaly
169.82169°
Mean motion
3.8173 °/min
Orbital period
94.31 mins
BSTAR
0.000015702
Loading maneuver chart data...
Computing Atmospheric mass density...
Loading historical data...
Loading historical data...
Loading historical data...
Loading historical data...
Loading historical data...
Loading historical data...
Loading historical data...

Documentation

Showing up to 5 results
|